ATLAS D DEB, 2329

Orbit data source: Space-Track

ATLAS D DEB, 2329 is space debris in LEO originally from a launch on Thu, 14 Jul 1966 UTC launched from the Air Force Western Test Range (AFWTR). Debris objects in space refer to the collection of defunct objects orbiting the Earth. Examples of debris include non-operational satellites, rocket bodies, and fragments generated from explosions, collisions, or faulty payload assembly.

Loading next visibility...
ATLAS D DEB details
Identifier
2329, 1966-063D
Orbit
LEO
Last TLE update8 hours ago
Origin
Flag of USUSAF OAR (US)
ManufacturerGoodyear
MissionSpacecraft
Bus & MotorCONTAINER, Unknown motor
Mass2 kg wet, 2 kg dry
Launch date (UTC)
1966-07-14 (59 years ago)
Launch vehicleUnknown
Launch site
Air Force Western Test Range (AFWTR)
Object type
Payload
Rocket body
Debris
Shape & HBRHalf Cyl, 0.5 m
Radar Cross Section0.210 m², Medium (>0.1 m² and < 1m²)

Expand to show TLE details & history

TLE from 8 hours ago
0 ATLAS D DEB
1 02329U 66063D   25015.55727623  .00001799  00000-0  11915-2 0  9992
2 02329 144.2885   0.6732 0020857 135.9081 333.6654 13.91609223950096
Epoch: 2025-01-15T13:22Z
Definitive object data (Epoch: 2025-01-15T13:22:28.666Z)
Latitude33.52436°
Longitude-68.74015°
Altitude909.865 km
Speed7.409 km/s
True Right ascension16h 28m 30s
True Declination33° 22' 10"
Sunlit
Object was in daylight at TLE epoch
Visualization TLE readout
Latitude34.6805°
Longitude-26.64629°
Altitude916.583 km
Speed7.402 km/s
Apparent Right ascension15h 44m 46s
Apparent Declination0° 44' 24"
Sunlit
Object is in daylight
Visualization observer readout
Local Sidereal Time22:31:32
Azimuth278.132° WNW
Elevation-8.459°
Doppler factor1
Orbital elements
Apogee altitude941.186 km
Perigee altitude910.717 km
Semi-major axis7,304.089 km
Eccentricity0.0020857
Inclination144.2885°
RAAN0.6732°
Arg. of periapsis135.9081°
True anomaly333.55913°
Mean anomaly333.6654°
Eccentric anomaly333.61229°
Mean motion3.47692 °/min
BSTAR0.0011915
Orbital period103.54 mins
Loading maneuver chart data...
Loading historical data...
Loading historical data...
Loading historical data...
Loading historical data...
Loading historical data...
Loading historical data...
Loading historical data...

ATLAS D DEB Visibility forecast

Observer location: undefined°, undefined

Span
Click to sort rows by Start time (UTC) header in descending order
Start Az.
Max El. time (UTC)
Max El. Az.
Max El.
End time (UTC)
End Az.
5 mins2025-01-16 13:33:37.675Z118.345° SE2025-01-16 13:36:37.675Z152.377° SSE14.128°2025-01-16 13:38:37.675Z175.389° S
8 mins2025-01-16 15:11:37.675Z108.318° ESE2025-01-16 15:14:37.675Z158.078° S29.903°2025-01-16 15:19:37.675Z225.165° WSW
9 mins2025-01-16 16:48:37.675Z99.213° ESE2025-01-16 16:52:37.675Z164.003° S39.537°2025-01-16 16:57:37.675Z249.62° W
9 mins2025-01-16 18:26:37.675Z112.74° SE2025-01-16 18:30:37.675Z177.809° S39.54°2025-01-16 18:35:37.675Z262.97° W
8 mins2025-01-16 20:05:37.675Z145.876° SSE2025-01-16 20:08:37.675Z192.79° SSW29.856°2025-01-16 20:13:37.675Z262.944° W
4 mins2025-01-16 21:45:37.675Z191.489° SSW2025-01-16 21:47:37.675Z215.272° SW14.271°2025-01-16 21:49:37.675Z237.792° WSW
|